This demonstration page uses our WeatherBlox Daily Observations layout. Learn more.

Left ArrowRight Arrow

41.55636, -103.73856

Hourly Observations for October 2, 2021

Temp ( °F °C ) Dew Point ( °F °C ) Humidity (%) Winds ( mph kmh ) Pressure ( in mb ) Visibility ( mi km ) Precip ( " mm )
12:58 am 00:58 Clear 47 8.1 35 1.7 64 64 SW 6 9 30.15 1021 10 16 0.00 0.00
1:58 am 01:58 Clear 45 7 34 1.3 67 67 WSW 6 9 30.16 1021 10 16 0.00 0.00
2:58 am 02:58 Clear 44 6.9 35 1.6 69 69 WSW 7 11 30.16 1021 10 16 0.00 0.00
3:58 am 03:58 Clear 45 7.4 35 1.9 68 68 W 10 17 30.16 1021 10 16 0.00 0.00
4:58 am 04:58 Clear 44 6.9 36 2.1 72 72 W 10 17 30.17 1022 10 16 0.00 0.00
5:58 am 05:58 Clear 43 6.2 35 1.8 74 74 WSW 7 11 30.20 1023 10 16 0.00 0.00
6:58 am 06:58 Sunny 44 6.5 35 1.7 72 72 WSW 6 9 30.22 1023 10 16 0.00 0.00
7:58 am 07:58 Sunny 46 7.5 35 1.5 66 66 WSW 6 9 30.23 1024 10 16 0.00 0.00
8:58 am 08:58 Sunny 53 11.6 29 -1.9 39 39 WNW 12 19 30.22 1023 10 16 0.00 0.00
9:58 am 09:58 Sunny 58 14.3 29 -1.6 34 34 WNW 7 11 30.23 1024 10 16 0.00 0.00
10:58 am 10:58 Sunny 62 16.8 31 -0.6 31 31 NNW 9 15 30.21 1023 10 16 0.00 0.00
11:58 am 11:58 Sunny 67 19.7 31 -0.7 25 25 N 10 17 30.18 1022 10 16 0.00 0.00
12:58 pm 12:58 Sunny 69 20.4 27 -3 21 21 N 9 15 30.17 1022 10 16 0.00 0.00
1:58 pm 13:58 Sunny 69 20.6 28 -2.2 22 22 NE 12 19 30.14 1021 10 16 0.00 0.00
2:58 pm 14:58 Sunny 71 21.9 26 -3.4 18 18 NNW 9 15 30.13 1020 10 16 0.00 0.00
3:58 pm 15:58 Sunny 72 22.3 26 -3.2 18 18 NNE 12 19 30.11 1020 10 16 0.00 0.00
4:58 pm 16:58 Sunny 71 21.8 24 -4.3 17 17 N 7 11 30.11 1020 10 16 0.00 0.00
5:58 pm 17:58 Sunny 69 20.3 24 -4.5 18 18 NE 8 13 30.13 1020 10 16 0.00 0.00
6:58 pm 18:58 Clear 61 15.9 25 -4.1 25 25 ENE 8 13 30.15 1021 10 16 0.00 0.00
7:58 pm 19:58 Clear 58 14.2 26 -3.4 30 30 ESE 7 11 30.16 1022 10 16 0.00 0.00
8:58 pm 20:58 Clear 50 10.1 26 -3.5 39 39 S 5 7 30.16 1022 10 16 0.00 0.00
9:58 pm 21:58 Clear 56 13.3 27 -2.6 33 33 SSE 10 17 30.15 1021 10 16 0.00 0.00
10:58 pm 22:58 Clear 52 11.1 28 -2.4 39 39 S 7 11 30.16 1021 10 16 0.00 0.00
11:58 pm 23:58 Clear 48 9.1 27 -2.6 44 44 SSW 8 13 30.16 1021 10 16 0.00 0.00

Powered by AerisWeather